#timestamp,LO_Frequency,Hit,StdDev 
1645124415.9,286046997.7,N
1645124435.7,286047002.4,N
1645124455.5,286047000.6,N
1645124475.4,286046992.5,N
1645124495.2,286046996.3,N
1645124515.1,286046995.2,N
1645124516.0,286046995.2,N
1645124535.8,286046993.6,N
1645124555.6,286046997.7,N
1645124575.5,286046995.0,N
1645124595.3,286046990.5,N
1645124615.1,286046990.7,N
1645124635.9,286046991.0,N
1645124655.7,286046986.1,N
1645124675.6,286046983.2,Y
1645124695.4,286046985.0,P
1645124715.2,286046981.2,N
1645124735.1,286046982.0,N
1645124736.0,286046982.0,N
1645124755.8,286046984.0,N
1645124775.7,286046979.0,Y
1645124795.5,286046995.0,P
1645124815.3,286047003.0,N
1645124835.2,286047004.7,N
1645124855.0,286047004.5,N
1645124855.9,286047004.5,N
1645124875.8,286047005.6,N
1645124895.6,286047004.7,N
1645124915.4,286047010.8,N
1645124935.3,286047009.9,N
1645124955.1,286047006.1,N
1645124975.8,286047010.8,N
1645124995.7,286047009.0,N
1645125015.5,286047007.7,N
1645125035.3,286047003.7,N
1645125055.2,286047007.2,N
1645125075.0,286047012.3,N
1645125075.9,286047012.3,N
1645125095.8,286047007.4,N
1645125115.6,286047007.5,N
1645125135.4,286047009.5,N
1645125155.3,286047013.9,N
1645125175.1,286047012.3,N
1645125195.8,286047012.9,N
1645125215.7,286047013.9,N
1645125235.5,286047012.0,N
1645125255.4,286047008.6,N
1645125275.2,286047011.9,N
1645125295.0,286047011.1,N
1645125295.9,286047011.1,N
1645125315.8,286047015.4,N
1645125335.6,286047012.6,N
1645125355.5,286047015.5,Y
1645125375.3,286047006.0,P
1645125395.1,286047001.1,N
1645125415.9,286047002.8,N
1645125435.7,286047004.1,N
1645125455.5,286047002.0,N
1645125475.4,286046998.9,N
1645125495.2,286047000.9,N
1645125515.0,286047000.3,N
1645125516.0,286047000.3,N
1645125535.8,286047001.5,N
1645125555.6,286047004.8,N
1645125575.5,286047001.3,N
1645125595.3,286047006.2,N
1645125615.1,286047002.1,N
1645125635.9,286046999.8,N
1645125655.7,286047008.7,Y
1645125675.6,286047005.2,P
1645125695.4,286047011.6,P
1645125715.2,286047009.7,N
1645125735.1,286047013.8,Y
1645125736.0,286047013.8,P
1645125755.8,286047004.0,N
1645125775.6,286047005.4,N
1645125795.5,286047003.2,N
1645125815.3,286047002.1,N
1645125835.2,286047002.6,N
1645125855.9,286046999.4,N
1645125875.7,286047005.9,N
1645125895.6,286047002.3,N
1645125915.4,286047001.3,N
1645125935.2,286047005.4,N
1645125955.1,286047000.7,N
1645125956.0,286047000.7,N
1645125975.8,286046993.8,N
1645125995.7,286046989.2,N
1645126015.5,286046988.4,N
1645126035.3,286046985.8,N
1645126055.2,286046989.6,N
1645126075.9,286046991.1,N
1645126095.7,286046987.5,N
1645126115.6,286046989.4,N
1645126135.4,286046987.8,N
1645126155.3,286046989.1,N
1645126175.1,286046985.7,N
1645126176.0,286046985.7,N
1645126195.8,286046981.7,N
1645126215.7,286046978.9,N
1645126235.5,286046979.3,N
1645126255.3,286046983.4,N
1645126275.2,286046981.0,N
1645126295.0,286046979.1,N
1645126295.9,286046979.1,N
1645126315.8,286046983.9,N
1645126335.6,286046985.4,N
1645126355.4,286046988.3,N
1645126375.3,286046989.8,N
1645126395.1,286046990.0,N
1645126415.8,286046984.5,N
1645126435.7,286046980.9,N
1645126455.5,286046979.8,N
1645126475.4,286046972.5,Y
1645126495.2,286046984.5,P
1645126515.0,286046984.4,P
1645126515.9,286046984.4,P
1645126535.8,286046990.4,Y
1645126555.6,286047013.8,P
1645126575.5,286047012.4,N
1645126595.3,286047011.4,N
1645126615.1,286047014.2,N
1645126635.9,286047016.6,N
1645126655.7,286047017.1,N
1645126675.5,286047014.5,N
1645126695.4,286047020.0,N
1645126715.2,286047021.7,N
1645126735.0,286047024.7,N
1645126735.9,286047024.7,N
1645126755.8,286047030.9,Y
1645126775.6,286047011.4,P
1645126795.5,286047010.4,P
1645126815.3,286047005.3,N
1645126835.1,286046996.6,N
1645126855.9,286046996.5,N
1645126875.7,286046998.4,N
1645126895.5,286047002.7,N
1645126915.4,286046997.9,N
1645126935.2,286046998.9,N
1645126955.1,286047000.4,N
1645126956.0,286047000.4,N
1645126975.8,286047002.7,N
1645126995.6,286047002.3,N
1645127015.5,286047006.0,N
1645127035.3,286047005.3,N
1645127055.1,286047000.0,N
1645127075.9,286046995.8,N
1645127095.7,286046995.9,N
1645127115.6,286046994.4,N
1645127135.4,286046990.2,N
1645127155.2,286046991.6,N
1645127175.1,286046986.4,N
1645127176.0,286046986.4,N
1645127195.8,286046985.5,N
1645127215.6,286046985.4,N
1645127235.5,286046980.7,N
1645127255.3,286046977.6,N
1645127275.2,286046975.8,N
1645127295.9,286046979.5,N
1645127315.7,286046980.1,N
1645127335.6,286046979.1,N
1645127355.4,286046979.2,N
1645127375.3,286046983.9,N
1645127395.1,286046986.9,N
1645127396.0,286046986.9,N
1645127415.8,286046992.3,N
1645127435.7,286046989.9,N
1645127455.5,286046990.5,N
1645127475.3,286046992.8,N
1645127495.2,286046991.5,N
1645127515.0,286046988.3,N
1645127515.9,286046988.3,N
1645127535.8,286046984.5,N
1645127555.6,286046986.4,N
1645127575.4,286046986.8,N
1645127595.3,286046985.5,N
1645127615.1,286046984.4,N
1645127635.9,286046979.6,Y
1645127655.7,286047000.8,P
1645127675.5,286046998.4,N
1645127695.4,286047001.4,N
1645127715.2,286047001.6,N
1645127735.0,286046997.3,N
1645127735.9,286046997.3,N
1645127755.8,286046994.5,N
1645127775.6,286046987.0,N
1645127795.5,286046984.5,N
1645127815.3,286046987.4,N
1645127835.1,286046992.1,N
1645127855.9,286046994.1,N
1645127875.7,286046994.9,N
1645127895.5,286046999.4,N
1645127915.4,286047005.1,N
1645127935.2,286047008.3,N
1645127985.1,286047009.3,E
1645127995.0,286047005.5,N
1645127995.9,286047005.5,P
